Location: Unspecified
(51.0000°N, 12.0000°E)
Time: 13:59:55
(UTC+02:00)

ISS - Pass Details

Date: 04 January 2018
Orbit: 402 x 408 km, 51.6° (Epoch: 23 July)

Event Time Altitude Azimuth Distance (km) Brightness Sun altitude
Exits shadow 06:57:40 17° 276° (W) 1,127 -2.2 -11.4°
Maximum altitude 07:00:06 78° 1° (N) 435 -3.8 -11.0°
Drops below altitude 10° 07:03:29 10° 89° (E) 1,508 0.2 -10.5°
Sets 07:05:36 0° 90° (E) 2,375 1.5 -10.2°
